FW6537 Weather Reports


time (UTC)temp
F
wind
direction
speed
knots
gust
knots
rain 1hr
in
rain 24hr
in
rain mn
in
humidity
%
barometer
mb
20260831193152 69 96 0.0 0.0 0.00 0.00 0.00 90 1017.3
20260831191627 69 96 0.0 0.0 0.00 0.00 0.00 90 1017.3
20260831190135 68 96 0.0 0.9 0.00 0.00 0.00 90 1017.5
20260831184630 69 101 0.0 0.9 0.00 0.00 0.00 91 1017.7
20260831183126 68 101 0.0 0.9 0.00 0.00 0.00 91 1017.9
20260831181623 68 86 0.0 0.9 0.00 0.00 0.00 91 1017.8
20260831180124 68 82 0.0 0.0 0.00 0.00 0.00 91 1018.2
20260831174638 68 82 0.0 0.9 0.00 0.00 0.00 90 1018.4
20260831173131 68 102 0.0 2.6 0.00 0.00 0.00 89 1018.4
20260831171733 68 68 0.0 0.9 0.00 0.00 0.00 89 1018.5
20260831170146 69 72 0.0 0.0 0.00 0.00 0.00 89 1018.6
20260831164621 69 72 0.0 0.9 0.00 0.00 0.00 88 1018.8
20260831163122 69 75 0.0 0.9 0.00 0.00 0.00 88 1019.0
20260831161628 69 82 0.0 1.7 0.00 0.00 0.00 87 1019.2
20260831160128 69 44 0.9 2.6 0.00 0.00 0.00 89 1018.9
20260831154629 69 82 0.0 0.9 0.00 0.00 0.00 90 1019.1
20260831153145 68 57 0.0 0.9 0.00 0.00 0.00 90 1019.0
20260831151636 69 65 0.0 0.0 0.00 0.00 0.00 88 1019.3
20260831150139 69 62 0.0 1.7 0.00 0.00 0.00 87 1019.2
20260831144638 69 49 0.0 5.2 0.00 0.00 0.00 85 1019.1
20260831143133 69 73 1.7 5.2 0.00 0.00 0.00 84 1018.8
20260831141646 68 159 0.0 0.0 0.00 0.00 0.00 87 1018.9
20260831140204 68 157 0.0 0.9 0.00 0.00 0.00 87 1019.1
20260831134634 67 51 0.0 1.7 0.00 0.00 0.00 88 1019.0
20260831133149 66 56 0.0 2.6 0.00 0.00 0.00 90 1019.0
20260831131659 65 104 0.0 0.9 0.00 0.00 0.00 91 1018.9
20260831130132 64 27 0.9 1.7 0.00 0.00 0.00 92 1019.0
20260831124628 64 89 0.0 0.9 0.00 0.00 0.00 93 1019.0
20260831123123 63 95 0.0 0.0 0.00 0.00 0.00 93 1019.2
20260831121637 63 95 0.0 0.9 0.00 0.00 0.00 94 1019.2
20260831120135 63 95 0.0 1.7 0.00 0.00 0.00 94 1019.4
20260831114629 63 96 0.0 0.0 0.00 0.00 0.00 95 1019.5
20260831113126 62 96 0.0 0.0 0.00 0.00 0.00 95 1019.2
20260831111624 62 96 0.0 0.9 0.00 0.00 0.00 95 1019.3
20260831110146 62 96 0.0 0.0 0.00 0.00 0.00 95 1019.3
20260831104636 62 96 0.0 0.0 0.00 0.00 0.00 95 1019.4
20260831103138 62 96 0.0 0.0 0.00 0.00 0.00 94 1019.0
20260831101656 62 96 0.0 0.0 0.00 0.00 0.00 94 1018.8
20260831100128 62 96 0.0 0.0 0.00 0.00 0.00 94 1018.7
20260831094645 62 96 0.0 0.0 0.00 0.00 0.00 94 1018.6
20260831093138 62 96 0.0 0.0 0.00 0.00 0.00 93 1018.8
20260831091632 63 96 0.0 0.0 0.00 0.00 0.00 93 1018.9
20260831090128 63 96 0.0 0.0 0.00 0.00 0.00 92 1018.8
20260831084625 64 96 0.0 0.0 0.00 0.00 0.00 92 1018.8
20260831083143 64 96 0.0 0.9 0.00 0.00 0.00 92 1018.8
20260831081644 63 96 0.0 0.0 0.00 0.00 0.00 93 1018.8
20260831080135 63 96 0.0 0.0 0.00 0.00 0.00 93 1018.7
20260831074637 63 97 0.0 0.0 0.00 0.00 0.00 93 1018.6
20260831073137 63 97 0.0 0.0 0.00 0.00 0.00 93 1018.7
20260831071653 63 97 0.0 0.9 0.00 0.00 0.00 93 1018.5
20260831070129 63 97 0.0 0.0 0.00 0.00 0.00 93 1018.8
20260831064622 64 97 0.0 0.9 0.00 0.00 0.00 93 1018.6
20260831063140 64 97 0.0 0.0 0.00 0.00 0.00 93 1018.8
20260831061643 64 97 0.0 0.9 0.00 0.00 0.00 93 1018.7
20260831060133 64 97 0.0 0.0 0.00 0.00 0.00 93 1018.8
20260831054640 63 97 0.0 0.9 0.00 0.00 0.00 93 1019.0
20260831053136 63 97 0.0 0.0 0.00 0.00 0.00 94 1019.2
20260831051633 63 97 0.0 0.0 0.00 0.00 0.00 94 1019.5
20260831050136 63 97 0.0 0.0 0.00 0.00 0.00 94 1019.5
20260831044622 63 97 0.0 0.0 0.00 0.00 0.00 94 1019.3
20260831043141 63 97 0.0 0.0 0.00 0.00 0.00 95 1019.3
20260831041626 63 98 0.0 0.0 0.00 0.00 0.00 94 1019.3
20260831040200 63 97 0.0 0.0 0.00 0.00 0.00 94 1019.3
20260831034640 64 97 0.0 0.0 0.00 0.00 0.00 94 1019.3
20260831033135 64 97 0.0 0.0 0.00 0.00 0.00 94 1019.3
20260831031635 64 97 0.0 0.0 0.00 0.00 0.00 94 1019.2
20260831024634 64 97 0.0 0.0 0.00 0.00 0.00 93 1019.2
20260831023133 65 97 0.0 0.0 0.00 0.00 0.00 93 1019.1
20260831021632 65 97 0.0 0.0 0.00 0.00 0.00 92 1019.1
20260831020129 65 97 0.0 0.0 0.00 0.00 0.00 92 1019.1
20260831014623 66 97 0.0 0.0 0.00 0.00 0.00 91 1018.9
20260831013141 66 97 0.0 0.0 0.00 0.00 0.00 90 1019.1
20260831011645 67 97 0.0 0.0 0.00 0.00 0.00 90 1019.1
20260831010138 67 97 0.0 0.0 0.00 0.00 0.00 89 1019.1
20260831004635 68 89 0.0 0.0 0.00 0.00 0.00 88 1019.1
20260831003137 68 105 0.0 2.6 0.00 0.00 0.00 88 1018.7
20260831001634 68 84 0.0 0.0 0.00 0.00 0.00 88 1018.3
20260831000149 68 95 0.0 0.0 0.00 0.00 0.00 87 1018.2
20260830234642 68 95 0.0 1.7 0.00 0.00 0.00 87 1018.2
20260830233144 68 88 0.0 0.0 0.00 0.00 0.00 87 1018.2
20260830231708 68 89 0.0 1.7 0.00 0.00 0.00 87 1018.0
20260830230159 68 98 0.9 2.6 0.00 0.00 0.00 87 1018.0
20260830224657 68 97 0.0 0.0 0.00 0.00 0.00 87 1018.1
20260830223135 68 101 0.0 0.0 0.00 0.00 0.00 88 1018.0
20260830221633 68 105 0.0 1.7 0.00 0.00 0.00 88 1018.0
20260830220132 68 99 0.0 0.9 0.00 0.00 0.00 88 1018.0
20260830214645 68 113 0.0 0.0 0.00 0.00 0.00 87 1018.0
20260830213124 68 129 0.0 0.0 0.00 0.00 0.00 88 1018.0
20260830211728 68 129 0.0 0.0 0.00 0.00 0.00 87 1018.0
20260830210145 68 129 0.0 0.0 0.00 0.00 0.00 87 1018.0
20260830204624 68 129 0.0 0.0 0.00 0.00 0.00 87 1018.0
20260830203124 67 130 0.0 0.0 0.00 0.00 0.00 88 1018.1
20260830201623 67 136 0.0 2.6 0.00 0.00 0.00 88 1018.2
20260830200140 68 136 0.0 0.9 0.00 0.00 0.00 87 1018.0
20260830194622 68 123 0.9 1.7 0.00 0.00 0.00 86 1018.1